Time,TemperatureF,DewpointF,PressureIn,WindDirection,WindDirectionDegrees,WindSpeedMPH,WindSpeedGustMPH,Humidity,HourlyPrecipIn,Conditions,Clouds,dailyrainin,SoftwareType,DateUTC
2013-01-29 00:00:00,44.2,39.4,30.32,North,32767,-999.0,0.0,83,0.00,,,0.00,Wunderground v.1.13,2013-01-29 08:00:00,
2013-01-29 00:05:00,44.0,39.2,30.32,North,32767,-999.0,0.0,83,0.00,,,0.00,Wunderground v.1.13,2013-01-29 08:05:00,
2013-01-29 00:15:00,43.6,38.8,30.32,North,32767,-999.0,0.0,83,0.00,,,0.00,Wunderground v.1.13,2013-01-29 08:15:00,
2013-01-29 00:20:00,43.4,38.3,30.32,North,32767,-999.0,0.0,82,0.00,,,0.00,Wunderground v.1.13,2013-01-29 08:20:00,
2013-01-29 00:30:00,43.0,38.2,30.31,North,32767,-999.0,0.0,83,0.00,,,0.00,Wunderground v.1.13,2013-01-29 08:30:00,
2013-01-29 00:40:00,42.6,37.8,30.32,North,32767,-999.0,0.0,83,0.00,,,0.00,Wunderground v.1.13,2013-01-29 08:40:00,
2013-01-29 00:50:00,42.3,37.5,30.31,North,32767,-999.0,0.0,83,0.00,,,0.00,Wunderground v.1.13,2013-01-29 08:50:00,
2013-01-29 01:00:00,42.0,37.2,30.32,North,32767,-999.0,0.0,83,0.00,,,0.00,Wunderground v.1.13,2013-01-29 09:00:00,
2013-01-29 01:05:00,41.9,37.1,30.32,North,32767,-999.0,0.0,83,0.00,,,0.00,Wunderground v.1.13,2013-01-29 09:05:00,
2013-01-29 01:15:00,41.6,37.1,30.31,North,32767,-999.0,0.0,84,0.00,,,0.00,Wunderground v.1.13,2013-01-29 09:15:00,
2013-01-29 01:25:00,41.3,36.8,30.32,North,32767,-999.0,0.0,84,0.00,,,0.00,Wunderground v.1.13,2013-01-29 09:25:00,
2013-01-29 01:35:00,41.1,36.6,30.32,North,32767,-999.0,0.0,84,0.00,,,0.00,Wunderground v.1.13,2013-01-29 09:35:00,
2013-01-29 01:45:00,40.8,36.3,30.32,North,32767,-999.0,0.0,84,0.00,,,0.00,Wunderground v.1.13,2013-01-29 09:45:00,
2013-01-29 01:55:00,40.6,36.1,30.32,North,32767,-999.0,0.0,84,0.00,,,0.00,Wunderground v.1.13,2013-01-29 09:55:00,
2013-01-29 02:05:00,40.4,36.2,30.32,North,32767,-999.0,0.0,85,0.00,,,0.00,Wunderground v.1.13,2013-01-29 10:05:00,
2013-01-29 02:15:00,40.2,36.1,30.32,North,32767,-999.0,0.0,85,0.00,,,0.00,Wunderground v.1.13,2013-01-29 10:15:00,
2013-01-29 02:20:00,40.1,36.0,30.33,North,32767,-999.0,0.0,85,0.00,,,0.00,Wunderground v.1.13,2013-01-29 10:20:00,
2013-01-29 02:30:00,40.0,35.9,30.33,North,32767,-999.0,0.0,85,0.00,,,0.00,Wunderground v.1.13,2013-01-29 10:30:00,
2013-01-29 02:40:00,39.9,36.1,30.33,North,32767,-999.0,0.0,86,0.00,,,0.00,Wunderground v.1.13,2013-01-29 10:40:00,
2013-01-29 02:50:00,39.9,36.1,30.33,North,32767,-999.0,0.0,86,0.00,,,0.00,Wunderground v.1.13,2013-01-29 10:50:00,
2013-01-29 03:00:00,39.8,36.0,30.33,North,32767,-999.0,0.0,86,0.00,,,0.00,Wunderground v.1.13,2013-01-29 11:00:00,
2013-01-29 03:05:00,39.9,36.3,30.33,North,32767,-999.0,0.0,87,0.00,,,0.00,Wunderground v.1.13,2013-01-29 11:05:00,
2013-01-29 03:15:00,39.9,36.3,30.33,North,32767,-999.0,0.0,87,0.00,,,0.00,Wunderground v.1.13,2013-01-29 11:15:00,
2013-01-29 03:25:00,39.9,36.3,30.33,North,32767,-999.0,0.0,87,0.00,,,0.00,Wunderground v.1.13,2013-01-29 11:25:00,
2013-01-29 03:30:00,39.9,36.3,30.32,North,32767,-999.0,0.0,87,0.00,,,0.00,Wunderground v.1.13,2013-01-29 11:30:00,
2013-01-29 03:40:00,40.0,36.7,30.32,North,32767,-999.0,0.0,88,0.00,,,0.00,Wunderground v.1.13,2013-01-29 11:40:00,
2013-01-29 03:45:00,40.0,36.7,30.32,North,32767,-999.0,0.0,88,0.00,,,0.00,Wunderground v.1.13,2013-01-29 11:45:00,
2013-01-29 03:55:00,40.1,36.8,30.33,North,32767,-999.0,0.0,88,0.00,,,0.00,Wunderground v.1.13,2013-01-29 11:55:00,
2013-01-29 04:05:00,40.3,37.0,30.33,North,32767,-999.0,0.0,88,0.00,,,0.00,Wunderground v.1.13,2013-01-29 12:05:00,
2013-01-29 04:15:00,40.4,37.1,30.33,North,32767,-999.0,0.0,88,0.00,,,0.00,Wunderground v.1.13,2013-01-29 12:15:00,
2013-01-29 04:25:00,40.6,37.6,30.32,North,32767,-999.0,0.0,89,0.00,,,0.00,Wunderground v.1.13,2013-01-29 12:25:00,
2013-01-29 04:35:00,40.7,37.7,30.33,North,32767,-999.0,0.0,89,0.00,,,0.00,Wunderground v.1.13,2013-01-29 12:35:00,
2013-01-29 04:45:00,40.7,37.7,30.33,North,32767,-999.0,0.0,89,0.00,,,0.00,Wunderground v.1.13,2013-01-29 12:45:00,
2013-01-29 04:55:00,40.7,37.7,30.32,North,32767,-999.0,0.0,89,0.00,,,0.00,Wunderground v.1.13,2013-01-29 12:55:00,
2013-01-29 05:05:00,40.7,37.7,30.32,North,32767,-999.0,0.0,89,0.00,,,0.00,Wunderground v.1.13,2013-01-29 13:05:00,
2013-01-29 05:10:00,40.6,37.6,30.32,North,32767,-999.0,0.0,89,0.00,,,0.00,Wunderground v.1.13,2013-01-29 13:10:00,
2013-01-29 05:20:00,40.6,37.6,30.34,North,32767,-999.0,0.0,89,0.00,,,0.00,Wunderground v.1.13,2013-01-29 13:20:00,
2013-01-29 05:30:00,40.5,37.5,30.34,North,32767,-999.0,0.0,89,0.00,,,0.00,Wunderground v.1.13,2013-01-29 13:30:00,
2013-01-29 05:40:00,40.6,37.6,30.34,North,32767,-999.0,0.0,89,0.00,,,0.00,Wunderground v.1.13,2013-01-29 13:40:00,
2013-01-29 05:50:00,40.8,38.1,30.34,North,32767,-999.0,0.0,90,0.00,,,0.00,Wunderground v.1.13,2013-01-29 13:50:00,
2013-01-29 06:00:00,40.9,38.2,30.34,North,32767,-999.0,0.0,90,0.00,,,0.00,Wunderground v.1.13,2013-01-29 14:00:00,
2013-01-29 06:05:00,41.0,38.3,30.34,North,32767,-999.0,0.0,90,0.00,,,0.00,Wunderground v.1.13,2013-01-29 14:05:00,
2013-01-29 06:15:00,41.1,38.4,30.34,North,32767,-999.0,0.0,90,0.00,,,0.00,Wunderground v.1.13,2013-01-29 14:15:00,
2013-01-29 06:25:00,41.1,38.4,30.34,North,32767,-999.0,0.0,90,0.00,,,0.00,Wunderground v.1.13,2013-01-29 14:25:00,
2013-01-29 06:35:00,41.1,38.4,30.35,North,32767,-999.0,0.0,90,0.00,,,0.00,Wunderground v.1.13,2013-01-29 14:35:00,
2013-01-29 06:45:00,41.1,38.4,30.35,North,32767,-999.0,0.0,90,0.00,,,0.00,Wunderground v.1.13,2013-01-29 14:45:00,
2013-01-29 06:55:00,41.1,38.4,30.35,North,32767,-999.0,0.0,90,0.00,,,0.00,Wunderground v.1.13,2013-01-29 14:55:00,
2013-01-29 07:05:00,41.0,38.3,30.35,North,32767,-999.0,0.0,90,0.00,,,0.00,Wunderground v.1.13,2013-01-29 15:05:00,
2013-01-29 07:15:00,40.9,38.2,30.35,North,32767,-999.0,0.0,90,0.00,,,0.00,Wunderground v.1.13,2013-01-29 15:15:00,
2013-01-29 07:25:00,40.9,38.2,30.35,North,32767,-999.0,0.0,90,0.00,,,0.00,Wunderground v.1.13,2013-01-29 15:25:00,
2013-01-29 07:35:00,40.9,38.2,30.35,North,32767,-999.0,0.0,90,0.00,,,0.00,Wunderground v.1.13,2013-01-29 15:35:00,
2013-01-29 07:45:00,40.9,38.2,30.36,North,32767,-999.0,0.0,90,0.00,,,0.00,Wunderground v.1.13,2013-01-29 15:45:00,
2013-01-29 07:55:00,40.9,38.2,30.36,North,32767,-999.0,0.0,90,0.00,,,0.00,Wunderground v.1.13,2013-01-29 15:55:00,
2013-01-29 08:05:00,41.0,38.6,30.36,North,32767,-999.0,0.0,91,0.00,,,0.00,Wunderground v.1.13,2013-01-29 16:05:00,
2013-01-29 08:15:00,41.1,38.7,30.36,North,32767,-999.0,0.0,91,0.00,,,0.00,Wunderground v.1.13,2013-01-29 16:15:00,
2013-01-29 08:25:00,41.3,38.9,30.36,North,32767,-999.0,0.0,91,0.00,,,0.00,Wunderground v.1.13,2013-01-29 16:25:00,
2013-01-29 08:35:00,41.7,39.3,30.36,North,32767,-999.0,0.0,91,0.00,,,0.00,Wunderground v.1.13,2013-01-29 16:35:00,
2013-01-29 08:40:00,41.9,39.5,30.36,North,32767,-999.0,0.0,91,0.00,,,0.00,Wunderground v.1.13,2013-01-29 16:40:00,
2013-01-29 08:50:00,42.4,40.2,30.36,North,32767,-999.0,0.0,92,0.00,,,0.00,Wunderground v.1.13,2013-01-29 16:50:00,
2013-01-29 09:00:00,43.0,40.8,30.36,North,32767,-999.0,0.0,92,0.00,,,0.00,Wunderground v.1.13,2013-01-29 17:00:00,
2013-01-29 09:05:00,43.4,41.2,30.36,North,32767,-999.0,0.0,92,0.00,,,0.00,Wunderground v.1.13,2013-01-29 17:05:00,
2013-01-29 09:15:00,44.1,41.9,30.37,North,32767,-999.0,0.0,92,0.00,,,0.00,Wunderground v.1.13,2013-01-29 17:15:00,
2013-01-29 09:25:00,44.9,43.0,30.36,North,32767,-999.0,0.0,93,0.00,,,0.00,Wunderground v.1.13,2013-01-29 17:25:00,
2013-01-29 09:35:00,45.8,43.9,30.37,North,32767,-999.0,0.0,93,0.00,,,0.00,Wunderground v.1.13,2013-01-29 17:35:00,
2013-01-29 09:45:00,46.7,44.8,30.37,North,32767,-999.0,0.0,93,0.00,,,0.00,Wunderground v.1.13,2013-01-29 17:45:00,
2013-01-29 09:55:00,47.5,45.6,30.38,North,32767,-999.0,0.0,93,0.00,,,0.00,Wunderground v.1.13,2013-01-29 17:55:00,
2013-01-29 10:00:00,48.0,46.1,30.37,North,32767,-999.0,0.0,93,0.00,,,0.00,Wunderground v.1.13,2013-01-29 18:00:00,
2013-01-29 10:05:00,48.5,46.6,30.38,North,32767,-999.0,0.0,93,0.00,,,0.00,Wunderground v.1.13,2013-01-29 18:05:00,
2013-01-29 10:15:00,49.2,47.0,30.38,North,32767,-999.0,0.0,92,0.00,,,0.00,Wunderground v.1.13,2013-01-29 18:15:00,
2013-01-29 10:25:00,49.8,47.3,30.38,North,32767,-999.0,0.0,91,0.00,,,0.00,Wunderground v.1.13,2013-01-29 18:25:00,
2013-01-29 10:35:00,50.4,47.6,30.38,North,32767,-999.0,0.0,90,0.00,,,0.00,Wunderground v.1.13,2013-01-29 18:35:00,
2013-01-29 10:45:00,51.3,47.6,30.37,North,32767,-999.0,0.0,87,0.00,,,0.00,Wunderground v.1.13,2013-01-29 18:45:00,
2013-01-29 10:55:00,53.3,45.6,30.37,North,32767,-999.0,0.0,75,0.00,,,0.00,Wunderground v.1.13,2013-01-29 18:55:00,
2013-01-29 11:05:00,54.6,45.0,30.37,North,32767,-999.0,0.0,70,0.00,,,0.00,Wunderground v.1.13,2013-01-29 19:05:00,
2013-01-29 11:15:00,55.0,44.6,30.37,North,32767,-999.0,0.0,68,0.00,,,0.00,Wunderground v.1.13,2013-01-29 19:15:00,
2013-01-29 11:20:00,55.1,43.9,30.37,North,32767,-999.0,0.0,66,0.00,,,0.00,Wunderground v.1.13,2013-01-29 19:20:00,
2013-01-29 11:30:00,55.1,43.9,30.37,North,32767,-999.0,0.0,66,0.00,,,0.00,Wunderground v.1.13,2013-01-29 19:30:00,
2013-01-29 11:40:00,55.2,43.6,30.36,North,32767,-999.0,0.0,65,0.00,,,0.00,Wunderground v.1.13,2013-01-29 19:40:00,
2013-01-29 11:50:00,56.2,43.8,30.36,North,32767,-999.0,0.0,63,0.00,,,0.00,Wunderground v.1.13,2013-01-29 19:50:00,
2013-01-29 12:00:00,56.4,44.0,30.35,North,32767,-999.0,0.0,63,0.00,,,0.00,Wunderground v.1.13,2013-01-29 20:00:00,
2013-01-29 12:05:00,56.6,44.6,30.35,North,32767,-999.0,0.0,64,0.00,,,0.00,Wunderground v.1.13,2013-01-29 20:05:00,
2013-01-29 12:15:00,56.5,44.5,30.35,North,32767,-999.0,0.0,64,0.00,,,0.00,Wunderground v.1.13,2013-01-29 20:15:00,
2013-01-29 12:25:00,57.1,45.0,30.34,North,32767,-999.0,0.0,64,0.00,,,0.00,Wunderground v.1.13,2013-01-29 20:25:00,
2013-01-29 12:35:00,57.2,45.1,30.34,North,32767,-999.0,0.0,64,0.00,,,0.00,Wunderground v.1.13,2013-01-29 20:35:00,
2013-01-29 12:45:00,57.8,44.9,30.33,North,32767,-999.0,0.0,62,0.00,,,0.00,Wunderground v.1.13,2013-01-29 20:45:00,
2013-01-29 12:50:00,57.7,44.3,30.32,North,32767,-999.0,0.0,61,0.00,,,0.00,Wunderground v.1.13,2013-01-29 20:50:00,
2013-01-29 13:00:00,57.9,44.5,30.32,North,32767,-999.0,0.0,61,0.00,,,0.00,Wunderground v.1.13,2013-01-29 21:00:00,
2013-01-29 13:05:00,57.6,44.2,30.32,North,32767,-999.0,0.0,61,0.00,,,0.00,Wunderground v.1.13,2013-01-29 21:05:00,
2013-01-29 13:15:00,58.6,45.2,30.31,North,32767,-999.0,0.0,61,0.00,,,0.00,Wunderground v.1.13,2013-01-29 21:15:00,
2013-01-29 13:25:00,58.7,43.5,30.31,North,32767,-999.0,0.0,57,0.00,,,0.00,Wunderground v.1.13,2013-01-29 21:25:00,
2013-01-29 13:35:00,58.4,44.1,30.31,North,32767,-999.0,0.0,59,0.00,,,0.00,Wunderground v.1.13,2013-01-29 21:35:00,
2013-01-29 13:45:00,58.7,43.0,30.31,North,32767,-999.0,0.0,56,0.00,,,0.00,Wunderground v.1.13,2013-01-29 21:45:00,
2013-01-29 13:55:00,58.3,44.0,30.30,North,32767,-999.0,0.0,59,0.00,,,0.00,Wunderground v.1.13,2013-01-29 21:55:00,
2013-01-29 14:05:00,58.2,43.9,30.30,North,32767,-999.0,0.0,59,0.00,,,0.00,Wunderground v.1.13,2013-01-29 22:05:00,
2013-01-29 14:15:00,58.4,44.1,30.30,North,32767,-999.0,0.0,59,0.00,,,0.00,Wunderground v.1.13,2013-01-29 22:15:00,
2013-01-29 14:25:00,58.7,44.4,30.29,North,32767,-999.0,0.0,59,0.00,,,0.00,Wunderground v.1.13,2013-01-29 22:25:00,
2013-01-29 14:35:00,58.7,43.5,30.29,North,32767,-999.0,0.0,57,0.00,,,0.00,Wunderground v.1.13,2013-01-29 22:35:00,
2013-01-29 14:45:00,59.0,43.3,30.29,North,32767,-999.0,0.0,56,0.00,,,0.00,Wunderground v.1.13,2013-01-29 22:45:00,
2013-01-29 14:50:00,59.1,43.9,30.29,North,32767,-999.0,0.0,57,0.00,,,0.00,Wunderground v.1.13,2013-01-29 22:50:00,
2013-01-29 15:00:00,59.3,44.1,30.29,North,32767,-999.0,0.0,57,0.00,,,0.00,Wunderground v.1.13,2013-01-29 23:00:00,
2013-01-29 15:05:00,59.6,45.2,30.29,North,32767,-999.0,0.0,59,0.00,,,0.00,Wunderground v.1.13,2013-01-29 23:05:00,
2013-01-29 15:15:00,59.5,45.2,30.29,North,32767,-999.0,0.0,59,0.00,,,0.00,Wunderground v.1.13,2013-01-29 23:15:00,
2013-01-29 15:25:00,59.4,45.9,30.29,North,32767,-999.0,0.0,61,0.00,,,0.00,Wunderground v.1.13,2013-01-29 23:25:00,
2013-01-29 15:35:00,59.0,45.1,30.29,North,32767,-999.0,0.0,60,0.00,,,0.00,Wunderground v.1.13,2013-01-29 23:35:00,
2013-01-29 15:45:00,58.5,45.9,30.29,North,32767,-999.0,0.0,63,0.00,,,0.00,Wunderground v.1.13,2013-01-29 23:45:00,
2013-01-29 15:55:00,58.9,45.5,30.29,North,32767,-999.0,0.0,61,0.00,,,0.00,Wunderground v.1.13,2013-01-29 23:55:00,
2013-01-29 16:05:00,59.0,45.1,30.29,North,32767,-999.0,0.0,60,0.00,,,0.00,Wunderground v.1.13,2013-01-30 00:05:00,
2013-01-29 16:15:00,59.0,45.1,30.29,North,32767,-999.0,0.0,60,0.00,,,0.00,Wunderground v.1.13,2013-01-30 00:15:00,
2013-01-29 16:25:00,58.6,45.6,30.29,North,32767,-999.0,0.0,62,0.00,,,0.00,Wunderground v.1.13,2013-01-30 00:25:00,
2013-01-29 16:30:00,58.4,45.8,30.29,North,32767,-999.0,0.0,63,0.00,,,0.00,Wunderground v.1.13,2013-01-30 00:30:00,
2013-01-29 16:40:00,58.2,45.7,30.29,North,32767,-999.0,0.0,63,0.00,,,0.00,Wunderground v.1.13,2013-01-30 00:40:00,
2013-01-29 16:50:00,58.0,45.5,30.28,North,32767,-999.0,0.0,63,0.00,,,0.00,Wunderground v.1.13,2013-01-30 00:50:00,
2013-01-29 17:00:00,57.8,45.7,30.29,North,32767,-999.0,0.0,64,0.00,,,0.00,Wunderground v.1.13,2013-01-30 01:00:00,
2013-01-29 17:05:00,57.7,45.6,30.28,North,32767,-999.0,0.0,64,0.00,,,0.00,Wunderground v.1.13,2013-01-30 01:05:00,
2013-01-29 17:15:00,57.5,45.4,30.29,North,32767,-999.0,0.0,64,0.00,,,0.00,Wunderground v.1.13,2013-01-30 01:15:00,
2013-01-29 17:25:00,57.3,45.6,30.29,North,32767,-999.0,0.0,65,0.00,,,0.00,Wunderground v.1.13,2013-01-30 01:25:00,
2013-01-29 17:35:00,57.0,44.9,30.30,North,32767,-999.0,0.0,64,0.00,,,0.00,Wunderground v.1.13,2013-01-30 01:35:00,
2013-01-29 17:45:00,56.5,44.9,30.29,North,32767,-999.0,0.0,65,0.00,,,0.00,Wunderground v.1.13,2013-01-30 01:45:00,
2013-01-29 17:55:00,55.9,44.3,30.30,North,32767,-999.0,0.0,65,0.00,,,0.00,Wunderground v.1.13,2013-01-30 01:55:00,
2013-01-29 18:05:00,55.3,44.1,30.30,North,32767,-999.0,0.0,66,0.00,,,0.00,Wunderground v.1.13,2013-01-30 02:05:00,
2013-01-29 18:15:00,54.8,44.0,30.30,North,32767,-999.0,0.0,67,0.00,,,0.00,Wunderground v.1.13,2013-01-30 02:15:00,
2013-01-29 18:25:00,54.2,43.9,30.30,North,32767,-999.0,0.0,68,0.00,,,0.00,Wunderground v.1.13,2013-01-30 02:25:00,
2013-01-29 18:30:00,53.8,43.9,30.30,North,32767,-999.0,0.0,69,0.00,,,0.00,Wunderground v.1.13,2013-01-30 02:30:00,
2013-01-29 18:40:00,53.3,43.8,30.30,North,32767,-999.0,0.0,70,0.00,,,0.00,Wunderground v.1.13,2013-01-30 02:40:00,
2013-01-29 18:50:00,52.7,43.6,30.30,North,32767,-999.0,0.0,71,0.00,,,0.00,Wunderground v.1.13,2013-01-30 02:50:00,
2013-01-29 19:00:00,52.2,43.4,30.31,North,32767,-999.0,0.0,72,0.00,,,0.00,Wunderground v.1.13,2013-01-30 03:00:00,
2013-01-29 19:05:00,51.8,43.1,30.31,North,32767,-999.0,0.0,72,0.00,,,0.00,Wunderground v.1.13,2013-01-30 03:05:00,
2013-01-29 19:15:00,51.2,42.8,30.31,North,32767,-999.0,0.0,73,0.00,,,0.00,Wunderground v.1.13,2013-01-30 03:15:00,
2013-01-29 19:25:00,50.7,42.7,30.31,North,32767,-999.0,0.0,74,0.00,,,0.00,Wunderground v.1.13,2013-01-30 03:25:00,
2013-01-29 19:35:00,50.3,42.3,30.31,North,32767,-999.0,0.0,74,0.00,,,0.00,Wunderground v.1.13,2013-01-30 03:35:00,
2013-01-29 19:45:00,49.8,42.2,30.31,North,32767,-999.0,0.0,75,0.00,,,0.00,Wunderground v.1.13,2013-01-30 03:45:00,
2013-01-29 19:55:00,49.4,42.1,30.31,North,32767,-999.0,0.0,76,0.00,,,0.00,Wunderground v.1.13,2013-01-30 03:55:00,
2013-01-29 20:00:00,49.2,42.0,30.31,North,32767,-999.0,0.0,76,0.00,,,0.00,Wunderground v.1.13,2013-01-30 04:00:00,
2013-01-29 20:05:00,49.0,41.8,30.31,North,32767,-999.0,0.0,76,0.00,,,0.00,Wunderground v.1.13,2013-01-30 04:05:00,
2013-01-29 20:15:00,48.6,41.7,30.31,North,32767,-999.0,0.0,77,0.00,,,0.00,Wunderground v.1.13,2013-01-30 04:15:00,
2013-01-29 20:25:00,48.2,41.3,30.31,North,32767,-999.0,0.0,77,0.00,,,0.00,Wunderground v.1.13,2013-01-30 04:25:00,
2013-01-29 20:35:00,47.8,41.3,30.31,North,32767,-999.0,0.0,78,0.00,,,0.00,Wunderground v.1.13,2013-01-30 04:35:00,
2013-01-29 20:45:00,47.4,40.9,30.31,North,32767,-999.0,0.0,78,0.00,,,0.00,Wunderground v.1.13,2013-01-30 04:45:00,
2013-01-29 20:55:00,47.0,40.5,30.31,North,32767,-999.0,0.0,78,0.00,,,0.00,Wunderground v.1.13,2013-01-30 04:55:00,
2013-01-29 21:10:00,46.5,40.3,30.31,North,32767,-999.0,0.0,79,0.00,,,0.00,Wunderground v.1.13,2013-01-30 05:10:00,
2013-01-29 21:15:00,46.3,40.1,30.31,North,32767,-999.0,0.0,79,0.00,,,0.00,Wunderground v.1.13,2013-01-30 05:15:00,
2013-01-29 21:25:00,46.0,40.2,30.32,North,32767,-999.0,0.0,80,0.00,,,0.00,Wunderground v.1.13,2013-01-30 05:25:00,
2013-01-29 21:30:00,45.9,40.1,30.32,North,32767,-999.0,0.0,80,0.00,,,0.00,Wunderground v.1.13,2013-01-30 05:30:00,
2013-01-29 21:35:00,45.7,40.2,30.32,North,32767,-999.0,0.0,81,0.00,,,0.00,Wunderground v.1.13,2013-01-30 05:35:00,
2013-01-29 21:45:00,45.5,40.0,30.31,North,32767,-999.0,0.0,81,0.00,,,0.00,Wunderground v.1.13,2013-01-30 05:45:00,
2013-01-29 21:50:00,45.4,40.2,30.32,North,32767,-999.0,0.0,82,0.00,,,0.00,Wunderground v.1.13,2013-01-30 05:50:00,
2013-01-29 22:00:00,45.2,40.0,30.31,North,32767,-999.0,0.0,82,0.00,,,0.00,Wunderground v.1.13,2013-01-30 06:00:00,
2013-01-29 22:05:00,45.0,39.8,30.31,North,32767,-999.0,0.0,82,0.00,,,0.00,Wunderground v.1.13,2013-01-30 06:05:00,
2013-01-29 22:15:00,44.9,40.0,30.31,North,32767,-999.0,0.0,83,0.00,,,0.00,Wunderground v.1.13,2013-01-30 06:15:00,
2013-01-29 22:20:00,44.8,40.0,30.31,North,32767,-999.0,0.0,83,0.00,,,0.00,Wunderground v.1.13,2013-01-30 06:20:00,
2013-01-29 22:30:00,44.6,39.8,30.31,North,32767,-999.0,0.0,83,0.00,,,0.00,Wunderground v.1.13,2013-01-30 06:30:00,
2013-01-29 22:40:00,44.3,39.8,30.31,North,32767,-999.0,0.0,84,0.00,,,0.00,Wunderground v.1.13,2013-01-30 06:40:00,
2013-01-29 22:50:00,44.2,39.7,30.31,North,32767,-999.0,0.0,84,0.00,,,0.00,Wunderground v.1.13,2013-01-30 06:50:00,
2013-01-29 23:00:00,44.0,39.5,30.31,North,32767,-999.0,0.0,84,0.00,,,0.00,Wunderground v.1.13,2013-01-30 07:00:00,
2013-01-29 23:05:00,43.9,39.4,30.31,North,32767,-999.0,0.0,84,0.00,,,0.00,Wunderground v.1.13,2013-01-30 07:05:00,
2013-01-29 23:15:00,43.7,39.2,30.31,North,32767,-999.0,0.0,84,0.00,,,0.00,Wunderground v.1.13,2013-01-30 07:15:00,
2013-01-29 23:25:00,43.5,39.3,30.31,North,32767,-999.0,0.0,85,0.00,,,0.00,Wunderground v.1.13,2013-01-30 07:25:00,
2013-01-29 23:30:00,43.4,39.2,30.31,North,32767,-999.0,0.0,85,0.00,,,0.00,Wunderground v.1.13,2013-01-30 07:30:00,
2013-01-29 23:40:00,43.2,39.0,30.31,North,32767,-999.0,0.0,85,0.00,,,0.00,Wunderground v.1.13,2013-01-30 07:40:00,
2013-01-29 23:45:00,43.1,38.9,30.31,North,32767,-999.0,0.0,85,0.00,,,0.00,Wunderground v.1.13,2013-01-30 07:45:00,
2013-01-29 23:55:00,42.9,38.7,30.31,North,32767,-999.0,0.0,85,0.00,,,0.00,Wunderground v.1.13,2013-01-30 07:55:00,